Location: Liscomb Game Sanctuary
(45.1633°N, 62.5575°W)
Time: 21:54:32
(UTC-03:00)

Amateur Radio Satellites - All Passes

Search period start: 25 June 2016 21:24
Search period end: 26 June 2016 21:24
Location: Liscomb Game Sanctuary, 45.1633°N, 62.5575°W

Satellite Date Start Highest point End Downlink Frequencies (MHz)
Time Altitude Azimuth
AAUSAT CUBESAT 2 25 Jun 21:39:32 21:43:19 33° 264° (W) 21:47:10 437.432
CINEMA 3 25 Jun 21:43:39 21:45:26 12° 271° (W) 21:47:12 145.822/145.860
HO-68 25 Jun 21:46:23 21:52:04 25° 268° (W) 21:57:48 435.675
AUBIESAT-1 25 Jun 21:49:18 21:51:53 21° 259° (W) 21:54:30 437.475
CUBEBUG 2 25 Jun 22:01:13 22:04:38 24° 266° (W) 22:08:06 437.445
COMPASS 1 25 Jun 22:12:24 22:14:27 13° 271° (W) 22:16:31 437.405
TIGRISAT 25 Jun 22:15:26 22:16:52 11° 88° (E) 22:18:17 435.000
DELFI C3 25 Jun 22:18:40 22:22:40 64° 259° (W) 22:26:42 145.870
UNISAT 6 25 Jun 22:18:44 22:20:56 13° 89° (E) 22:23:09 437.425
PRISM 25 Jun 22:28:54 22:32:43 38° 290° (WNW) 22:36:29 437.425
DX 1 25 Jun 22:37:53 22:38:56 11° 58° (ENE) 22:40:00 434.975-435.025
ZACube-1 25 Jun 22:42:32 22:45:37 20° 268° (W) 22:48:45 437.345
HUMSAT D 25 Jun 22:47:06 22:51:14 68° 259° (W) 22:55:28 437.325/437.525
AO-85 25 Jun 22:52:15 22:57:36 63° 121° (ESE) 23:02:47 145.980
YUBILEINY 25 Jun 22:56:11 23:02:29 21° 59° (ENE) 23:08:45 435.215
ANTELSAT 25 Jun 22:57:10 23:01:18 31° 96° (E) 23:05:27 437.575/2403.000
VELOX 1 25 Jun 22:59:14 23:02:35 22° 64° (ENE) 23:05:57 145.980
CUBEBUG 1 25 Jun 22:59:49 23:03:14 23° 65° (ENE) 23:06:38 437.445
Oscar 11 25 Jun 23:00:13 23:02:15 13° 271° (W) 23:04:18 145.826/435.025
Cosmos 2499 25 Jun 23:03:03 23:04:38 11° 314° (NW) 23:06:15 435.465 / 435.565
FUNcube-1 25 Jun 23:03:13 23:05:15 13° 271° (W) 23:07:20 145.935
ESTCUBE 1 25 Jun 23:20:46 23:25:11 53° 72° (ENE) 23:29:37 437.505/2401.250
QB50P2 25 Jun 23:29:46 23:31:27 12° 89° (E) 23:33:09 145.880/145.840
POLYITAN 1 25 Jun 23:32:16 23:34:05 12° 89° (E) 23:35:54 437.675
RS-15 25 Jun 23:34:41 23:45:21 37° 255° (WSW) 23:55:57 29.354- 29.394
DUCHIFAT 1 25 Jun 23:36:36 23:38:14 12° 89° (E) 23:39:53 145.980
AISAT 25 Jun 23:38:31 23:42:49 54° 72° (ENE) 23:47:07 437.250
TIGRISAT 25 Jun 23:49:29 23:54:07 83° 284° (WNW) 23:58:47 435.000
50 SAT 25 Jun 23:50:03 23:53:44 74° 74° (ENE) 23:57:28 437.505
UNISAT 6 25 Jun 23:53:31 23:58:08 72° 286° (WNW) 00:02:47 437.425
UKube-1 25 Jun 23:56:30 00:00:41 51° 71° (ENE) 00:04:53 .
TISAT 1 26 Jun 00:03:54 00:05:30 12° 60° (ENE) 00:07:07 437.305
SPROUT 26 Jun 00:04:32 00:08:31 41° 70° (ENE) 00:12:31 437.525
Cosmos 2491 26 Jun 00:08:39 00:15:08 24° 79° (E) 00:21:36 435.465 / 435.565
DX 1 26 Jun 00:10:04 00:14:25 88° 82° (E) 00:18:48 434.975-435.025
Cosmos 2504 26 Jun 00:11:43 00:17:57 20° 58° (ENE) 00:24:04 435.465 / 435.565
SO-50 26 Jun 00:12:09 00:15:39 20° 35° (NE) 00:19:04 436.795
JAS-2 26 Jun 00:28:33 00:30:57 13° 84° (E) 00:33:18 435.910
AO-85 26 Jun 00:33:53 00:38:28 28° 319° (NW) 00:42:53 145.980
ANTELSAT 26 Jun 00:33:55 00:37:57 30° 293° (WNW) 00:42:01 437.575/2403.000
VELOX 1 26 Jun 00:34:37 00:38:48 42° 261° (W) 00:43:00 145.980
CUBEBUG 1 26 Jun 00:35:15 00:39:19 38° 262° (W) 00:43:24 437.445
BUGSAT 1 26 Jun 00:44:28 00:48:02 29° 96° (E) 00:51:37 437.445
NANOSAT C BR1 26 Jun 00:47:57 00:52:12 75° 101° (ESE) 00:56:27 145.865
QB50P1 26 Jun 00:49:03 00:53:19 81° 103° (ESE) 00:57:34 145.935-145.965
YUBILEINY 26 Jun 00:51:49 01:00:43 86° 82° (E) 01:09:35 435.215
POPSAT HIP 1 26 Jun 00:51:56 00:56:12 85° 100° (E) 01:00:29 437.405
ESTCUBE 1 26 Jun 00:59:19 01:02:18 17° 269° (W) 01:05:18 437.505/2401.250
ITUPSAT 1 26 Jun 00:59:29 01:01:02 11° 56° (NE) 01:02:35 437.325
BEESAT 26 Jun 01:00:24 01:02:07 12° 56° (ENE) 01:03:50 436.000
QB50P2 26 Jun 01:03:28 01:07:43 67° 286° (WNW) 01:11:57 145.880/145.840
POLYITAN 1 26 Jun 01:06:05 01:10:20 66° 286° (WNW) 01:14:34 437.675
DUCHIFAT 1 26 Jun 01:10:10 01:14:22 67° 286° (WNW) 01:18:35 145.980
AISAT 26 Jun 01:16:55 01:19:37 16° 269° (W) 01:22:21 437.250
TIGRISAT 26 Jun 01:28:43 01:30:04 11° 302° (WNW) 01:31:25 435.000
UKube-1 26 Jun 01:34:19 01:37:01 16° 268° (W) 01:39:44 .
TISAT 1 26 Jun 01:36:25 01:40:35 75° 258° (WSW) 01:44:45 437.305
SPROUT 26 Jun 01:41:34 01:44:39 19° 267° (W) 01:47:44 437.525
SO-50 26 Jun 01:52:01 01:56:44 81° 234° (SW) 02:01:16 436.795
Cosmos 2491 26 Jun 02:02:11 02:10:58 79° 279° (W) 02:19:47 435.465 / 435.565
Cosmos 2504 26 Jun 02:03:54 02:12:54 81° 81° (E) 02:21:34 435.465 / 435.565
SWISSCUBE 26 Jun 02:08:50 02:13:28 53° 71° (ENE) 02:18:09 437.505
JAS-2 26 Jun 02:11:11 02:17:06 87° 286° (WNW) 02:22:26 435.910
BUGSAT 1 26 Jun 02:19:56 02:23:20 26° 293° (WNW) 02:26:45 437.445
PCSat 26 Jun 02:21:56 02:25:48 20° 106° (ESE) 02:29:42 145.827
NANOSAT C BR1 26 Jun 02:25:35 02:27:21 12° 300° (WNW) 02:29:07 145.865
QB50P1 26 Jun 02:26:59 02:28:28 12° 301° (WNW) 02:29:57 145.935-145.965
POPSAT HIP 1 26 Jun 02:30:07 02:31:21 11° 301° (WNW) 02:32:35 437.405
Gurwin Techsat 1B 26 Jun 02:32:18 02:36:51 28° 94° (E) 02:41:22 435.225
ITUPSAT 1 26 Jun 02:33:16 02:38:04 80° 73° (ENE) 02:42:54 437.325
BEESAT 26 Jun 02:34:21 02:39:07 83° 76° (ENE) 02:43:57 436.000
KKS-1 26 Jun 02:39:19 02:41:23 13° 59° (ENE) 02:43:27 437.445
Oscar 19 26 Jun 02:40:02 02:45:10 70° 103° (ESE) 02:50:17 437.125/150
YUBILEINY 26 Jun 02:50:12 02:56:21 22° 283° (WNW) 03:02:31 435.215
ITAMSAT 1 26 Jun 02:56:55 03:00:15 17° 90° (E) 03:03:34 435.822/435.867
AO-7 26 Jun 03:01:47 03:03:38 11° 83° (E) 03:05:28 29.400- 29.500
STARS 26 Jun 03:19:06 03:21:52 17° 62° (ENE) 03:24:40 437.465
MOZHAYETS 4 26 Jun 03:41:06 03:45:29 44° 70° (ENE) 03:49:54
SWISSCUBE 26 Jun 03:48:12 03:51:34 19° 268° (W) 03:54:59 437.505
JAS-2 26 Jun 03:58:03 04:01:10 15° 307° (NW) 04:04:08 435.910
Cosmos 2504 26 Jun 03:58:37 04:05:14 24° 282° (WNW) 04:11:45 435.465 / 435.565
BEESAT 3 26 Jun 03:59:32 04:03:24 65° 122° (ESE) 04:07:20 437.485
O/OREOS (USA 219) 26 Jun 04:01:40 04:06:09 81° 114° (ESE) 04:10:39 437.305
PCSat 26 Jun 04:03:18 04:08:41 65° 305° (NW) 04:14:07 145.827
AIST 1 26 Jun 04:03:28 04:06:40 20° 70° (ENE) 04:09:50
Cosmos 2491 26 Jun 04:03:39 04:09:25 19° 303° (WNW) 04:15:13 435.465 / 435.565
Gurwin Techsat 1B 26 Jun 04:11:55 04:16:56 43° 292° (WNW) 04:21:55 435.225
KKS-1 26 Jun 04:12:56 04:17:22 77° 257° (WSW) 04:21:49 437.445
ITUPSAT 1 26 Jun 04:14:31 04:16:29 12° 272° (W) 04:18:29 437.325
BEESAT 26 Jun 04:15:51 04:17:32 12° 272° (W) 04:19:14 436.000
Oscar 19 26 Jun 04:20:37 04:23:57 18° 301° (WNW) 04:27:16 437.125/150
BEESAT 2 26 Jun 04:31:15 04:35:13 79° 123° (ESE) 04:39:12 435.950
ITAMSAT 1 26 Jun 04:35:00 04:40:13 68° 288° (WNW) 04:45:24 435.822/435.867
AO-7 26 Jun 04:49:52 04:58:10 60° 104° (ESE) 05:06:23 29.400- 29.500
GONETS M04 26 Jun 04:52:53 04:59:53 26° 63° (ENE) 05:06:53
STARS 26 Jun 04:53:32 04:57:49 55° 259° (W) 05:02:07 437.465
Cosmos 2499 26 Jun 04:57:13 05:03:13 19° 57° (ENE) 05:09:03 435.465 / 435.565
CUBESAT XI-V 26 Jun 05:00:35 05:04:53 37° 69° (ENE) 05:09:11 437.345
MOZHAYETS 4 26 Jun 05:19:21 05:22:51 21° 268° (W) 05:26:23
HORYU 2 26 Jun 05:27:42 05:31:37 29° 96° (E) 05:35:30 437.375
BEESAT 3 26 Jun 05:38:45 05:41:30 18° 322° (NW) 05:44:15 437.485
AIST 1 26 Jun 05:40:29 05:44:25 37° 268° (W) 05:48:19
AO-85 26 Jun 05:43:05 05:46:16 17° 32° (NNE) 05:49:16 145.980
O/OREOS (USA 219) 26 Jun 05:43:41 05:46:10 14° 312° (NW) 05:48:39 437.305
PCSat 26 Jun 05:49:53 05:53:10 16° 327° (NNW) 05:56:27 145.827
NOAA 15 26 Jun 05:54:18 05:56:24 12° 87° (E) 05:58:30 137.62
BEESAT 2 26 Jun 06:11:01 06:13:33 16° 323° (NW) 06:16:07 435.950
BRITE-PL 26 Jun 06:14:28 06:16:52 15° 90° (E) 06:19:14 437.365/2234.400
ITAMSAT 1 26 Jun 06:17:21 06:18:43 11° 307° (NW) 06:20:06 435.822/435.867
Cubesat XI-IV 26 Jun 06:19:47 06:23:04 16° 89° (E) 06:26:21 437.490
AIST 2 26 Jun 06:26:12 06:30:18 72° 123° (ESE) 06:34:26 435.215
CUSAT 1 26 Jun 06:32:32 06:35:29 13° 81° (E) 06:38:17 437.405
LilacSat-2 26 Jun 06:36:58 06:39:40 18° 92° (E) 06:42:22 437.200
CUBESAT XI-V 26 Jun 06:38:23 06:42:20 26° 266° (W) 06:46:17 437.345
AO-7 26 Jun 06:43:08 06:50:34 37° 304° (WNW) 06:57:59 29.400- 29.500
STRAND 1 26 Jun 06:47:21 06:52:01 37° 67° (ENE) 06:56:44 437.568
GONETS M04 26 Jun 06:48:58 06:57:41 78° 265° (W) 07:06:24
Cosmos 2499 26 Jun 06:49:04 06:57:59 79° 80° (E) 07:06:26 435.465 / 435.565
CUTE-I 26 Jun 06:54:00 06:58:50 32° 96° (E) 07:03:37 437.470
GOMX 1 26 Jun 07:02:19 07:05:35 22° 94° (E) 07:08:55 467.674
HORYU 2 26 Jun 07:04:11 07:08:09 31° 293° (WNW) 07:12:07 437.375
AO-85 26 Jun 07:22:51 07:27:30 87° 48° (NE) 07:31:42 145.980
NOAA 18 26 Jun 07:29:10 07:34:43 69° 103° (ESE) 07:40:15 137.9125
NOAA 15 26 Jun 07:31:37 07:36:55 89° 289° (WNW) 07:42:10 137.62
PRISM 26 Jun 07:45:45 07:48:47 20° 64° (ENE) 07:51:49 437.425
BRITE-PL 26 Jun 07:51:41 07:55:43 49° 288° (WNW) 07:59:43 437.365/2234.400
CINEMA 3 26 Jun 07:57:21 07:59:27 13° 90° (E) 08:01:34 145.822/145.860
Cubesat XI-IV 26 Jun 07:58:19 08:03:42 73° 287° (WNW) 08:09:04 437.490
CANX-2 26 Jun 08:03:38 08:05:54 14° 89° (E) 08:08:09 2200.000
DANDE 26 Jun 08:05:01 08:12:25 36° 88° (E) 08:19:27 436.750
AIST 2 26 Jun 08:06:21 08:09:15 18° 322° (NW) 08:12:09 435.215
CUSAT 1 26 Jun 08:08:52 08:16:40 65° 97° (E) 08:23:21 437.405
LilacSat-2 26 Jun 08:10:31 08:14:07 37° 289° (WNW) 08:17:42 437.200
DOVE 4 26 Jun 08:16:24 08:20:37 62° 101° (E) 08:25:02 437.250
CUTE 1.7 + AOD 2 26 Jun 08:23:29 08:26:39 20° 92° (E) 08:29:47 437.475
STRAND 1 26 Jun 08:26:43 08:31:14 31° 265° (W) 08:35:47 437.568
SEEDS 26 Jun 08:32:53 08:35:49 18° 91° (E) 08:38:44 437.485
CUTE-I 26 Jun 08:33:58 08:38:54 37° 293° (WNW) 08:43:48 437.470
GOMX 1 26 Jun 08:40:02 08:43:48 34° 290° (WNW) 08:47:39 467.674
AO-7 26 Jun 08:40:03 08:40:54 10° 327° (NNW) 08:41:46 29.400- 29.500
Cosmos 2499 26 Jun 08:43:28 08:50:06 25° 282° (WNW) 08:56:32 435.465 / 435.565
GONETS M04 26 Jun 08:48:13 08:52:58 16° 286° (WNW) 08:57:44
AO-85 26 Jun 09:06:12 09:07:04 10° 255° (WSW) 09:07:54 145.980
UWE-3 26 Jun 09:06:44 09:09:27 16° 90° (E) 09:12:13 435.000/436.395/437.385
Oscar 11 26 Jun 09:09:30 09:10:09 10° 87° (E) 09:10:46 145.826/435.025
HO-68 26 Jun 09:09:36 09:16:43 59° 102° (ESE) 09:23:49 435.675
NOAA 18 26 Jun 09:10:53 09:14:51 20° 301° (WNW) 09:18:48 137.9125
FUNcube-1 26 Jun 09:12:46 09:13:50 11° 87° (E) 09:14:54 145.935
NOAA 15 26 Jun 09:13:12 09:15:56 14° 304° (NW) 09:18:40 137.62
PHONESAT 2.4 26 Jun 09:14:05 09:16:34 22° 164° (SSE) 09:19:02 2401.200-2431.200
TIGRISAT 26 Jun 09:16:22 09:18:16 13° 59° (ENE) 09:20:12 435.000
AAUSAT CUBESAT 2 26 Jun 09:19:32 09:23:17 31° 96° (E) 09:27:00 437.432
PRISM 26 Jun 09:19:53 09:23:50 41° 261° (W) 09:27:47 437.425
UNISAT 6 26 Jun 09:19:58 09:22:22 15° 61° (ENE) 09:24:47 437.425
AUBIESAT-1 26 Jun 09:25:16 09:27:26 14° 98° (E) 09:29:40 437.475
CINEMA 3 26 Jun 09:32:33 09:37:00 70° 286° (WNW) 09:41:38 145.822/145.860
CANX-2 26 Jun 09:37:54 09:42:09 59° 286° (WNW) 09:46:21 2200.000
Cubesat XI-IV 26 Jun 09:40:45 09:42:51 12° 306° (NW) 09:44:57 437.490
DANDE 26 Jun 09:46:42 09:55:00 59° 285° (WNW) 10:02:45 436.750
ISS 26 Jun 09:47:23 09:49:56 21° 137° (SE) 09:52:30 145.825
CUBEBUG 2 26 Jun 09:48:26 09:52:56 57° 100° (E) 09:57:32 437.445
COMPASS 1 26 Jun 09:50:31 09:54:46 87° 109° (ESE) 09:58:57 437.405
CUSAT 1 26 Jun 09:52:32 09:59:03 29° 291° (WNW) 10:04:47 437.405
DOVE 4 26 Jun 09:55:37 09:57:55 14° 298° (WNW) 10:00:16 437.250
DELFI C3 26 Jun 09:55:39 09:57:50 14° 90° (E) 10:00:00 145.870
ANTELSAT 26 Jun 09:58:06 10:01:57 33° 68° (ENE) 10:05:55 437.575/2403.000
CUTE 1.7 + AOD 2 26 Jun 09:58:38 10:02:40 41° 289° (WNW) 10:06:40 437.475
M-CUBED/EXP-1 PRIME 26 Jun 10:00:56 10:04:32 41° 105° (ESE) 10:08:25 437.505
SEEDS 26 Jun 10:07:41 10:11:45 44° 289° (WNW) 10:15:46 437.485
Cosmos 2491 26 Jun 10:15:45 10:19:35 13° 51° (NE) 10:23:24 435.465 / 435.565
QB50P2 26 Jun 10:24:45 10:26:40 13° 60° (ENE) 10:28:36 145.880/145.840
ZACube-1 26 Jun 10:26:58 10:31:29 66° 101° (ESE) 10:36:02 437.345
POLYITAN 1 26 Jun 10:27:18 10:29:17 13° 60° (ENE) 10:31:16 437.675
HUMSAT D 26 Jun 10:29:22 10:32:15 17° 91° (E) 10:35:07 437.325/437.525
DUCHIFAT 1 26 Jun 10:30:54 10:32:42 13° 60° (ENE) 10:34:31 145.980
BEESAT 3 26 Jun 10:38:36 10:40:30 13° 34° (NNE) 10:42:23 437.485
UWE-3 26 Jun 10:41:47 10:46:17 60° 286° (WNW) 10:50:50 435.000/436.395/437.385
Oscar 11 26 Jun 10:42:28 10:46:51 81° 286° (WNW) 10:51:12 145.826/435.025
JAS-2 26 Jun 10:43:42 10:46:42 13° 51° (NE) 10:49:37 435.910
FUNcube-1 26 Jun 10:46:06 10:50:39 84° 284° (WNW) 10:55:13 145.935
PHONESAT 2.4 26 Jun 10:49:57 10:52:47 34° 180° (S) 10:55:37 2401.200-2431.200
TIGRISAT 26 Jun 10:50:04 10:54:20 75° 258° (WSW) 10:58:44 435.000
UNISAT 6 26 Jun 10:54:18 10:58:33 64° 258° (WSW) 11:02:56 437.425
AAUSAT CUBESAT 2 26 Jun 10:55:14 10:58:39 25° 293° (WNW) 11:02:03 437.432
HO-68 26 Jun 10:57:54 11:04:03 32° 302° (WNW) 11:10:13 435.675
AUBIESAT-1 26 Jun 10:58:25 11:02:07 52° 293° (WNW) 11:06:05 437.475
PCSat 26 Jun 11:06:10 11:10:55 30° 45° (NE) 11:15:38 145.827
BEESAT 2 26 Jun 11:10:43 11:13:03 15° 35° (NE) 11:15:22 435.950
ISS 26 Jun 11:22:54 11:26:09 62° 335° (NNW) 11:29:23 145.825
CUBEBUG 2 26 Jun 11:26:06 11:29:10 18° 297° (WNW) 11:32:16 437.445
COMPASS 1 26 Jun 11:28:45 11:29:39 11° 301° (WNW) 11:30:32 437.405
DELFI C3 26 Jun 11:29:06 11:33:01 50° 287° (WNW) 11:36:51 145.870
DANDE 26 Jun 11:35:02 11:39:20 15° 305° (NW) 11:43:29 436.750
ANTELSAT 26 Jun 11:35:12 11:38:44 25° 266° (W) 11:42:21 437.575/2403.000
M-CUBED/EXP-1 PRIME 26 Jun 11:36:16 11:38:54 18° 299° (WNW) 11:41:39 437.505
BUGSAT 1 26 Jun 11:36:20 11:39:42 26° 67° (ENE) 11:43:05 437.445
NANOSAT C BR1 26 Jun 11:41:45 11:45:54 71° 75° (ENE) 11:50:06 145.865
QB50P1 26 Jun 11:43:09 11:47:19 77° 75° (ENE) 11:51:32 145.935-145.965
POPSAT HIP 1 26 Jun 11:46:06 11:50:17 81° 75° (ENE) 11:54:29 437.405
RS-15 26 Jun 11:48:12 11:58:09 37° 106° (ESE) 12:08:34 29.354- 29.394
QB50P2 26 Jun 11:57:44 12:01:55 70° 257° (WSW) 12:06:09 145.880/145.840
DX 1 26 Jun 11:57:57 11:59:56 13° 90° (E) 12:01:56 434.975-435.025
POLYITAN 1 26 Jun 12:00:23 12:04:32 68° 257° (WSW) 12:08:45 437.675
YUBILEINY 26 Jun 12:02:03 12:07:52 20° 76° (ENE) 12:13:43 435.215
DUCHIFAT 1 26 Jun 12:03:41 12:07:50 71° 257° (WSW) 12:12:01 145.980
HUMSAT D 26 Jun 12:03:58 12:08:08 48° 288° (WNW) 12:12:17 437.325/437.525
ZACube-1 26 Jun 12:04:38 12:07:16 15° 298° (WNW) 12:09:56 437.345
Cosmos 2491 26 Jun 12:10:05 12:18:41 59° 76° (ENE) 12:27:14 435.465 / 435.565
BEESAT 3 26 Jun 12:14:55 12:18:53 74° 53° (NE) 12:22:49 437.485
CUBEBUG 1 26 Jun 12:21:35 12:25:28 32° 96° (E) 12:29:20 437.445
Oscar 19 26 Jun 12:21:46 12:25:15 19° 60° (ENE) 12:28:44 437.125/150
VELOX 1 26 Jun 12:22:36 12:26:29 30° 96° (E) 12:30:21 145.980
JAS-2 26 Jun 12:23:01 12:30:29 57° 69° (ENE) 12:37:18 435.910
FUNcube-1 26 Jun 12:25:00 12:26:10 11° 302° (WNW) 12:27:19 145.935
PHONESAT 2.4 26 Jun 12:26:33 12:29:00 21° 197° (SSW) 12:31:26 2401.200-2431.200
O/OREOS (USA 219) 26 Jun 12:30:47 12:34:35 26° 55° (NE) 12:38:22 437.305
BEESAT 2 26 Jun 12:47:27 12:51:29 89° 70° (ENE) 12:55:28 435.950
ESTCUBE 1 26 Jun 12:47:43 12:52:16 88° 102° (ESE) 12:56:46 437.505/2401.250
PCSat 26 Jun 12:49:19 12:54:35 52° 244° (WSW) 12:59:49 145.827
50 SAT 26 Jun 12:50:39 12:54:22 70° 102° (ESE) 12:58:01 437.505
Cosmos 2504 26 Jun 12:57:15 13:00:15 12° 70° (ENE) 13:03:18 435.465 / 435.565
ISS 26 Jun 13:00:11 13:03:01 26° 354° (N) 13:05:50 145.825
AISAT 26 Jun 13:02:47 13:07:11 83° 102° (ESE) 13:11:35 437.250
AIST 2 26 Jun 13:08:14 13:10:45 15° 35° (NE) 13:13:16 435.215
BUGSAT 1 26 Jun 13:11:36 13:15:01 27° 264° (W) 13:18:29 437.445
UKube-1 26 Jun 13:17:16 13:21:36 71° 103° (ESE) 13:25:53 .
TISAT 1 26 Jun 13:19:35 13:21:54 14° 91° (E) 13:24:12 437.305
NANOSAT C BR1 26 Jun 13:20:56 13:22:08 11° 271° (W) 13:23:21 145.865
QB50P1 26 Jun 13:23:16 13:23:38 10° 272° (W) 13:24:01 145.935-145.965
SPROUT 26 Jun 13:23:53 13:28:07 60° 101° (E) 13:32:21 437.525
DX 1 26 Jun 13:32:16 13:36:34 65° 287° (WNW) 13:40:51 434.975-435.025
BEESAT 3 26 Jun 13:54:42 13:55:59 11° 251° (WSW) 13:57:16 437.485
YUBILEINY 26 Jun 13:54:42 14:03:25 89° 278° (W) 14:12:15 435.215
Gurwin Techsat 1B 26 Jun 13:55:11 14:00:20 53° 70° (ENE) 14:05:31 435.225
CUBEBUG 1 26 Jun 13:58:03 14:01:39 26° 294° (WNW) 14:05:14 437.445
RS-15 26 Jun 13:58:13 14:09:43 73° 310° (NW) 14:21:55 29.354- 29.394
Oscar 19 26 Jun 13:58:56 14:04:04 67° 258° (WSW) 14:09:12 437.125/150
VELOX 1 26 Jun 13:59:07 14:02:54 29° 293° (WNW) 14:06:40 145.980
AO-7 26 Jun 14:01:01 14:07:21 25° 49° (NE) 14:13:43 29.400- 29.500
Cosmos 2491 26 Jun 14:07:36 14:15:02 33° 277° (W) 14:22:28 435.465 / 435.565
JAS-2 26 Jun 14:08:55 14:15:41 33° 266° (W) 14:22:01 435.910
SWISSCUBE 26 Jun 14:09:19 14:10:47 11° 88° (E) 14:12:15 437.505
O/OREOS (USA 219) 26 Jun 14:09:57 14:14:03 36° 254° (WSW) 14:18:09 437.305
ITAMSAT 1 26 Jun 14:16:22 14:20:58 32° 65° (ENE) 14:25:35 435.822/435.867
ESTCUBE 1 26 Jun 14:26:44 14:28:23 12° 302° (WNW) 14:30:02 437.505/2401.250
50 SAT 26 Jun 14:26:52 14:27:29 10° 299° (WNW) 14:28:06 437.505
ITUPSAT 1 26 Jun 14:32:45 14:36:00 18° 91° (E) 14:39:12 437.325
BEESAT 26 Jun 14:33:23 14:36:42 18° 92° (E) 14:39:58 436.000
ISS 26 Jun 14:37:04 14:40:04 32° 14° (NNE) 14:43:03 145.825
AISAT 26 Jun 14:41:21 14:43:02 12° 301° (WNW) 14:44:42 437.250
Cosmos 2504 26 Jun 14:43:45 14:51:40 64° 92° (E) 15:00:12 435.465 / 435.565
AIST 2 26 Jun 14:45:41 14:49:52 87° 58° (ENE) 14:54:02 435.215
TISAT 1 26 Jun 14:53:47 14:57:53 55° 288° (WNW) 15:02:00 437.305
UKube-1 26 Jun 14:54:59 14:57:05 13° 300° (WNW) 14:59:10 .
SPROUT 26 Jun 15:01:10 15:03:37 15° 298° (WNW) 15:06:03 437.525
Gurwin Techsat 1B 26 Jun 15:36:32 15:40:36 22° 268° (W) 15:44:42 435.225
SWISSCUBE 26 Jun 15:44:24 15:49:14 86° 283° (WNW) 15:54:02 437.505
AO-7 26 Jun 15:50:47 15:59:08 90° 256° (WSW) 16:07:34 29.400- 29.500
YUBILEINY 26 Jun 15:55:15 16:01:35 22° 301° (WNW) 16:07:59 435.215
ITAMSAT 1 26 Jun 15:55:35 16:00:21 36° 263° (W) 16:05:11 435.822/435.867
KKS-1 26 Jun 16:02:45 16:05:44 17° 92° (E) 16:08:43 437.445
SO-50 26 Jun 16:08:45 16:12:25 21° 112° (ESE) 16:16:06 436.795
ITUPSAT 1 26 Jun 16:09:28 16:14:12 57° 288° (WNW) 16:18:53 437.325
BEESAT 26 Jun 16:10:07 16:14:49 55° 289° (WNW) 16:19:28 436.000
ISS 26 Jun 16:13:27 16:16:42 66° 213° (SSW) 16:19:57 145.825
RS-15 26 Jun 16:14:18 16:24:45 34° 340° (NNW) 16:35:37 29.354- 29.394
AIST 2 26 Jun 16:27:06 16:27:40 10° 252° (WSW) 16:28:15 435.215
HORYU 2 26 Jun 16:27:34 16:31:34 34° 68° (ENE) 16:35:36 437.375
AIST 1 26 Jun 16:37:34 16:38:31 11° 82° (E) 16:39:30
Cosmos 2504 26 Jun 16:38:38 16:45:43 31° 295° (WNW) 16:53:15 435.465 / 435.565
STARS 26 Jun 16:41:16 16:44:44 22° 94° (E) 16:48:11 437.465
CUTE-I 26 Jun 16:42:49 16:43:57 11° 53° (NE) 16:45:04 437.470
MOZHAYETS 4 26 Jun 17:10:45 17:15:25 80° 102° (ESE) 17:20:03
NOAA 15 26 Jun 17:15:16 17:19:37 27° 63° (ENE) 17:23:58 137.62
NOAA 18 26 Jun 17:18:38 17:22:59 25° 61° (ENE) 17:27:20 137.9125
LilacSat-2 26 Jun 17:22:08 17:23:52 13° 62° (ENE) 17:25:36 437.200
SWISSCUBE 26 Jun 17:24:22 17:26:16 12° 303° (WNW) 17:28:11 437.505
BRITE-PL 26 Jun 17:26:18 17:30:30 27° 67° (ENE) 17:34:27 437.365/2234.400
KKS-1 26 Jun 17:38:17 17:42:35 50° 289° (WNW) 17:46:52 437.445
Cosmos 2499 26 Jun 17:41:06 17:43:47 12° 70° (ENE) 17:46:31 435.465 / 435.565
Cubesat XI-IV 26 Jun 17:43:14 17:47:57 33° 65° (ENE) 17:52:43 437.490
AO-7 26 Jun 17:47:11 17:52:58 20° 270° (W) 17:58:49 29.400- 29.500
SO-50 26 Jun 17:47:43 17:52:33 58° 310° (NW) 17:57:22 436.795
GONETS M04 26 Jun 17:57:58 18:04:44 26° 80° (E) 18:11:29
HO-68 26 Jun 17:57:59 18:00:47 13° 45° (NE) 18:03:35 435.675
HORYU 2 26 Jun 18:04:30 18:08:10 25° 265° (W) 18:11:53 437.375
AIST 1 26 Jun 18:11:09 18:15:29 73° 280° (W) 18:19:48
GOMX 1 26 Jun 18:12:13 18:16:20 32° 69° (ENE) 18:20:14 467.674
STARS 26 Jun 18:17:08 18:21:13 38° 291° (WNW) 18:25:18 437.465
CUTE-I 26 Jun 18:17:40 18:22:57 64° 72° (ENE) 18:28:16 437.470
RS-15 26 Jun 18:31:23 18:41:56 32° 15° (NNE) 18:52:40 29.354- 29.394
CUBESAT XI-V 26 Jun 18:31:51 18:36:29 68° 102° (ESE) 18:41:04 437.345
CUSAT 1 26 Jun 18:44:21 18:48:08 33° 70° (ENE) 18:51:07 437.405
DANDE 26 Jun 18:44:59 18:49:01 20° 59° (ENE) 18:52:19 436.750
MOZHAYETS 4 26 Jun 18:49:41 18:51:57 14° 301° (WNW) 18:54:13
LilacSat-2 26 Jun 18:54:00 18:57:42 56° 260° (W) 19:01:28 437.200
NOAA 15 26 Jun 18:54:04 18:59:09 46° 261° (W) 19:04:15 137.62
NOAA 18 26 Jun 18:57:57 19:03:17 54° 259° (W) 19:08:41 137.9125
CANX-2 26 Jun 18:58:48 19:01:05 14° 61° (ENE) 19:03:21 2200.000
CINEMA 3 26 Jun 19:01:39 19:03:51 14° 62° (ENE) 19:06:03 145.822/145.860
BRITE-PL 26 Jun 19:04:05 19:08:51 39° 262° (W) 19:13:20 437.365/2234.400
CUTE 1.7 + AOD 2 26 Jun 19:18:21 19:21:24 19° 64° (ENE) 19:24:28 437.475
Cubesat XI-IV 26 Jun 19:23:02 19:27:57 37° 263° (W) 19:32:55 437.490
DOVE 4 26 Jun 19:23:57 19:28:18 79° 76° (ENE) 19:32:31 437.250
Cosmos 2499 26 Jun 19:26:48 19:34:53 61° 91° (E) 19:43:29 435.465 / 435.565
SEEDS 26 Jun 19:26:53 19:29:41 17° 63° (ENE) 19:32:31 437.485
SO-50 26 Jun 19:31:19 19:34:03 15° 331° (NNW) 19:36:47 436.795
HO-68 26 Jun 19:40:03 19:46:57 54° 66° (ENE) 19:53:53 435.675
GOMX 1 26 Jun 19:50:29 19:54:27 27° 264° (W) 19:58:14 467.674
GONETS M04 26 Jun 19:52:01 20:00:42 73° 281° (W) 20:09:26
CUTE-I 26 Jun 19:59:48 20:03:27 19° 269° (W) 20:07:09 437.470
Oscar 11 26 Jun 20:06:03 20:07:37 12° 59° (ENE) 20:09:12 145.826/435.025
UWE-3 26 Jun 20:06:23 20:08:51 15° 62° (ENE) 20:11:20 435.000/436.395/437.385
CUBESAT XI-V 26 Jun 20:10:37 20:13:19 16° 299° (WNW) 20:16:01 437.345
FUNcube-1 26 Jun 20:10:56 20:12:04 11° 58° (ENE) 20:13:12 145.935
AAUSAT CUBESAT 2 26 Jun 20:11:41 20:15:17 28° 68° (ENE) 20:18:53 437.432
AUBIESAT-1 26 Jun 20:13:30 20:16:03 21° 62° (ENE) 20:18:38 437.475
DANDE 26 Jun 20:27:13 20:32:28 47° 268° (W) 20:36:22 436.750
CUSAT 1 26 Jun 20:27:36 20:29:37 14° 278° (W) 20:31:25 437.405
CANX-2 26 Jun 20:32:09 20:36:25 65° 259° (W) 20:40:43 2200.000
STRAND 1 26 Jun 20:34:13 20:39:25 77° 104° (ESE) 20:44:34 437.568
CINEMA 3 26 Jun 20:36:26 20:40:32 59° 259° (W) 20:44:39 145.822/145.860
COMPASS 1 26 Jun 20:42:46 20:46:59 75° 74° (ENE) 20:51:13 437.405
DELFI C3 26 Jun 20:44:25 20:46:07 12° 61° (ENE) 20:47:48 145.870
RS-15 26 Jun 20:45:15 20:57:30 64° 46° (NE) 21:09:42 29.354- 29.394
CUBEBUG 2 26 Jun 20:48:36 20:52:40 56° 73° (ENE) 20:56:52 437.445
M-CUBED/EXP-1 PRIME 26 Jun 20:50:04 20:53:20 76° 70° (ENE) 20:56:37 437.505
CUTE 1.7 + AOD 2 26 Jun 20:52:50 20:56:56 44° 262° (W) 21:01:04 437.475
PRISM 26 Jun 20:59:45 21:02:57 22° 94° (E) 21:06:07 437.425
SEEDS 26 Jun 21:00:53 21:05:01 50° 261° (W) 21:09:11 437.485
